Weather History for St. Joseph, MO

Change the Weather History Date:

Saturday, September 21, 2013

  Actual Average Record
Temperature  
Mean Temperature 59 °F 64 °F  
Max Temperature 75 °F 77 °F 98 °F (1956)
Min Temperature 42 °F 52 °F 31 °F (1999)
Degree Days  
Heating Degree Days 6 3  
Month to date heating degree days 18 32  
Since 1 July heating degree days 20 37  
Cooling Degree Days 0 3  
Month to date cooling degree days 169 100  
Year to date cooling degree days 1239 1177  
Growing Degree Days 8 (Base 50)    
Moisture  
Dew Point 46 °F    
Average Humidity 67    
Maximum Humidity 100    
Minimum Humidity 33    
Precipitation  
Precipitation 0.00 in 0.11 in 2.22 in (1965)
Month to date precipitation 3.48 2.61  
Year to date precipitation 23.15 28.91  
Sea Level Pressure  
Sea Level Pressure 30.00 in    
Wind  
Wind Speed 1 mph (ENE)    
Max Wind Speed 8 mph    
Max Gust Speed 12 mph    
Visibility 5 miles    
Events Fog    
T = Trace of Precipitation, MM = Missing Value Source: NWS Daily Summary

Daily Weather History Graph

Daily Weather History Graph

Search for Another Location

Airport:

Trip Planner

Search our weather history database for the weather conditions in past years. The results will help you decide how hot, cold, wet, or windy it might be!

Date:

Astronomy

Sep. 21, 2013 Rise Set
Actual Time 7:06 AM CDT 7:17 PM CDT
Civil Twilight 6:39 AM CDT 7:44 PM CDT
Nautical Twilight 6:08 AM CDT 8:16 PM CDT
Astronomical Twilight 5:35 AM CDT 8:48 PM CDT
Moon 8:29 PM CDT (9/21) 9:25 AM CDT (9/21)
Length of Visible Light 13h 05m
Length of Day
12h 11m
Waning Gibbous, 94% of the Moon is Illuminated
Sep 21
Waning Gibbous
Sep 26
Last Quarter
Oct 4
New
Oct 11
First Quarter
Oct 18
Full

Hourly Weather History & Observations

Time (CDT) Temp. Windchill Dew Point Humidity Pressure Visibility Wind Dir Wind Speed Gust Speed Precip Events Conditions
12:53 AM 48.0 °F - 46.0 °F 93% 30.01 in 10.0 mi NNW 3.5 mph - N/A   Clear
1:19 AM 48.2 °F - 46.4 °F 93% 30.01 in 10.0 mi Calm Calm - N/A   Partly Cloudy
1:36 AM 46.4 °F - 44.6 °F 93% 30.01 in 7.0 mi Calm Calm - N/A   Mostly Cloudy
1:53 AM 46.9 °F - 45.0 °F 93% 30.01 in 6.0 mi Calm Calm - N/A   Mostly Cloudy
2:03 AM 46.4 °F - 44.6 °F 93% 30.01 in 10.0 mi Calm Calm - N/A   Scattered Clouds
2:12 AM 46.4 °F - 44.6 °F 93% 30.01 in 2.5 mi Calm Calm - N/A   Mostly Cloudy
2:20 AM 46.4 °F - 44.6 °F 93% 30.01 in 1.5 mi Calm Calm - N/A   Mostly Cloudy
2:29 AM 44.6 °F - 44.6 °F 100% 30.01 in 0.5 mi Calm Calm - N/A Fog Fog
2:53 AM 46.0 °F - 44.1 °F 93% 30.01 in 0.5 mi Calm Calm - N/A Fog Fog
3:08 AM 46.4 °F - 44.6 °F 93% 30.01 in 1.0 mi Calm Calm - N/A   Mist
3:11 AM 46.4 °F 45.2 °F 44.6 °F 93% 30.01 in 0.5 mi North 3.5 mph - N/A Fog Fog
3:34 AM 46.4 °F - 44.6 °F 93% 30.02 in 0.2 mi Calm Calm - N/A Fog Fog
3:43 AM 44.6 °F - 44.6 °F 100% 30.02 in 0.5 mi Calm Calm - N/A Fog Fog
3:45 AM 44.6 °F - 44.6 °F 100% 30.02 in 1.0 mi Calm Calm - N/A   Mist
3:53 AM 45.0 °F - 44.1 °F 97% 30.01 in 1.5 mi Calm Calm - N/A   Mostly Cloudy
4:06 AM 44.6 °F - 44.6 °F 100% 30.02 in 3.0 mi Calm Calm - N/A   Mostly Cloudy
4:19 AM 44.6 °F - 42.8 °F 93% 30.02 in 10.0 mi Calm Calm - N/A   Scattered Clouds
4:40 AM 44.6 °F - 42.8 °F 93% 30.02 in 2.5 mi Calm Calm - N/A   Mostly Cloudy
4:48 AM 44.6 °F - 42.8 °F 93% 30.02 in 5.0 mi Calm Calm - N/A   Mostly Cloudy
4:51 AM 44.6 °F - 42.8 °F 93% 30.02 in 1.5 mi Calm Calm - N/A   Mostly Cloudy
4:53 AM 43.0 °F - 43.0 °F 100% 30.02 in 1.0 mi Calm Calm - N/A   Mist
5:01 AM 44.6 °F 43.1 °F 42.8 °F 93% 30.02 in 0.8 mi North 3.5 mph - N/A   Mist
5:07 AM 44.6 °F - 42.8 °F 93% 30.02 in 2.0 mi Calm Calm - N/A   Scattered Clouds
5:15 AM 44.6 °F - 42.8 °F 93% 30.02 in 6.0 mi Calm Calm - N/A   Partly Cloudy
5:53 AM 43.0 °F - 42.1 °F 97% 30.02 in 10.0 mi Calm Calm - N/A   Partly Cloudy
6:22 AM 42.8 °F - 42.8 °F 100% 30.03 in 7.0 mi Calm Calm - N/A   Mostly Cloudy
6:47 AM 42.8 °F - 42.8 °F 100% 30.03 in 1.5 mi Calm Calm - N/A   Overcast
6:53 AM 43.0 °F - 42.1 °F 97% 30.04 in 0.5 mi Calm Calm - N/A Fog Fog
7:31 AM 44.6 °F - 44.6 °F 100% 30.04 in 0.2 mi Calm Calm - N/A Fog Fog
7:53 AM 46.9 °F - 46.0 °F 97% 30.05 in 0.2 mi Calm Calm - N/A Fog Fog
8:31 AM 48.2 °F - 48.2 °F 100% 30.05 in 0.2 mi Calm Calm - N/A Fog Fog
8:50 AM 50.0 °F - 50.0 °F 100% 30.05 in 3.0 mi Calm Calm - N/A   Scattered Clouds
8:53 AM 50.0 °F - 50.0 °F 100% 30.06 in 3.0 mi Calm Calm - N/A   Scattered Clouds
9:53 AM 54.0 °F - 52.0 °F 93% 30.06 in 10.0 mi Calm Calm - N/A   Clear
10:53 AM 62.1 °F - 48.0 °F 60% 30.05 in 10.0 mi Variable 3.5 mph - N/A   Clear
11:53 AM 66.9 °F - 46.0 °F 47% 30.04 in 10.0 mi Calm Calm - N/A   Clear
12:53 PM 70.0 °F - 45.0 °F 41% 30.02 in 10.0 mi Calm Calm - N/A   Clear
1:53 PM 71.1 °F - 43.0 °F 36% 29.99 in 10.0 mi Calm Calm - N/A   Clear
2:53 PM 73.0 °F - 43.0 °F 34% 29.98 in 10.0 mi Variable 4.6 mph - N/A   Clear
3:53 PM 73.9 °F - 46.0 °F 37% 29.95 in 10.0 mi Calm Calm - N/A   Clear
4:53 PM 75.0 °F - 46.0 °F 36% 29.93 in 10.0 mi Calm Calm - N/A   Clear
5:53 PM 73.0 °F - 48.9 °F 42% 29.92 in 10.0 mi South 4.6 mph - N/A   Clear
6:53 PM 69.1 °F - 52.0 °F 54% 29.91 in 10.0 mi SSE 5.8 mph - N/A   Clear
7:53 PM 63.0 °F - 51.1 °F 65% 29.91 in 10.0 mi SE 5.8 mph - N/A   Clear
8:53 PM 62.1 °F - 54.0 °F 75% 29.93 in 10.0 mi Calm Calm - N/A   Clear
9:53 PM 57.9 °F - 52.0 °F 81% 29.93 in 10.0 mi Calm Calm - N/A   Clear
10:53 PM 55.9 °F - 52.0 °F 87% 29.93 in 10.0 mi Calm Calm - N/A   Clear
11:53 PM 57.0 °F - 50.0 °F 77% 29.93 in 10.0 mi Calm Calm - N/A   Clear